CDT,Max TemperatureF,Mean TemperatureF,Min TemperatureF,Max Dew PointF,MeanDew PointF,Min DewpointF,Max Humidity, Mean Humidity, Min Humidity, Max Sea Level PressureIn, Mean Sea Level PressureIn, Min Sea Level PressureIn, Max VisibilityMiles, Mean VisibilityMiles, Min VisibilityMiles, Max Wind SpeedMPH, Mean Wind SpeedMPH, Max Gust SpeedMPH,PrecipitationIn, CloudCover, Events, WindDirDegrees
2012-3-1,34,29,23,29,25,21,92,85,78,29.86,29.78,29.70,10,6,0,13,5,15,T,7,Fog-Snow,191
2012-3-2,31,26,21,23,21,19,96,80,63,29.85,29.81,29.77,10,9,6,26,14,36,T,4,Snow,296
2012-3-3,27,21,15,19,16,13,84,76,68,29.98,29.92,29.79,10,10,8,29,14,38,T,5,Snow,312
2012-3-4,36,26,15,30,20,13,93,85,72,30.20,29.94,29.80,10,7,1,33,9,43,0.02,6,Snow,173
2012-3-5,51,34,17,33,26,14,91,69,50,30.21,30.01,29.74,10,9,5,29,12,38,0.00,1,,188
2012-3-6,69,51,33,45,35,28,81,58,32,29.70,29.55,29.48,10,10,10,22,9,29,0.00,0,,178
2012-3-7,53,40,27,46,31,19,93,80,67,30.16,29.75,29.46,10,9,2,29,15,36,T,7,,323
2012-3-8,48,36,23,28,22,18,85,64,37,30.48,30.31,30.18,10,10,10,23,11,29,0.00,0,,298
2012-3-9,52,35,18,28,22,14,81,57,39,30.58,30.38,30.08,10,10,10,23,11,29,0.00,0,,147
2012-3-10,72,56,39,32,25,20,50,34,19,30.05,29.96,29.88,10,10,10,24,14,31,0.00,0,,203
2012-3-11,62,53,44,46,39,26,93,68,41,29.94,29.80,29.66,10,9,2,24,15,31,0.17,5,Rain,178
2012-3-12,64,50,35,47,43,35,93,80,54,29.95,29.70,29.60,10,10,8,23,9,30,T,5,Rain,217
2012-3-13,79,55,30,45,38,29,96,60,23,29.99,29.87,29.70,10,10,8,25,11,31,0.00,0,,157
2012-3-14,70,53,36,45,36,29,92,57,22,29.98,29.82,29.65,10,10,10,23,9,26,0.00,0,,25
2012-3-15,75,53,30,42,34,26,82,55,28,30.05,29.97,29.90,10,10,8,14,5,17,0.00,0,,61
2012-3-16,82,59,35,54,42,34,100,74,25,29.93,29.85,29.72,10,5,0,21,7,26,0.00,2,Fog,168
2012-3-17,80,70,60,59,56,52,88,67,40,29.72,29.67,29.59,10,10,9,28,17,37,0.00,3,,177
2012-3-18,85,74,63,59,56,49,84,58,31,29.64,29.59,29.51,10,10,10,36,22,45,0.00,3,,174
2012-3-19,71,63,54,61,56,48,93,76,59,29.63,29.57,29.52,10,9,2,26,15,37,0.26,6,Rain-Hail-Thunderstorm,183
2012-3-20,60,54,48,52,48,42,96,79,62,29.94,29.81,29.65,10,10,10,17,8,22,T,7,Rain,189
2012-3-21,67,57,47,55,48,41,86,72,58,30.02,29.96,29.88,10,10,4,17,7,23,0.04,7,Rain,43
2012-3-22,63,54,44,60,54,46,100,93,86,30.01,29.95,29.91,10,6,1,16,8,22,0.26,7,Fog-Rain,100
2012-3-23,70,55,39,49,42,33,100,76,32,30.01,29.95,29.91,10,5,0,9,1,14,0.00,2,Fog,326
2012-3-24,78,58,37,49,41,36,100,64,27,30.11,29.98,29.93,10,9,5,9,2,13,0.00,0,Fog,51
2012-3-25,59,48,37,41,37,34,93,74,53,30.18,30.13,30.10,10,10,10,18,12,23,0.00,3,,54
2012-3-26,70,59,47,51,44,34,72,60,53,30.09,29.87,29.61,10,10,8,36,23,47,0.00,2,,122
2012-3-27,69,56,42,54,42,31,72,54,36,29.92,29.71,29.55,10,10,10,31,15,45,0.01,2,Rain-Thunderstorm,251
2012-3-28,67,51,34,38,35,31,89,58,26,30.08,30.00,29.93,10,10,10,17,6,21,0.00,0,,56
2012-3-29,69,57,45,55,46,36,93,69,45,29.94,29.80,29.69,10,9,1,21,10,26,0.01,4,Rain-Thunderstorm,124
2012-3-30,70,53,35,50,42,36,100,86,40,29.83,29.76,29.66,10,4,0,17,5,23,T,3,Fog,166
2012-3-31,83,65,47,54,47,40,94,67,22,29.74,29.68,29.58,10,7,0,17,8,21,0.00,2,,144